Latest Coastal Weather Observations for Sunshine Coast Airport

IDQ60701

Issued at 2:22 am EST Tuesday 10 December 2019 (issued every 10 minutes, with the page automatically refreshed every 10 minutes)

About coastal observations | Map of coastal stations | Coastal observations for QLD | Marine services | Other Formats
Station Details ID: 040861 Name: SUNSHINE COAST AIRPORT Lat: -26.60 Lon: 153.09 Height: 3.42 m
Data from the previous 72 hours. | See also: Recent months at Sunshine Coast Airport
Date/Time
EST
Wind Sea
Height
m
Swell Vis
km
Cloud Weather Temp
°C
Press
hPa
Rain since
9am
mm
Dir  Spd
kts
Gust
kts
Height
m
Period
s
Dir
10/02:14am WNW 2 3 - - - - 5 Clear - 20.7 1017.1 0.0
10/02:00am WNW 3 4 - - - - 10 - - 21.4 1017.1 0.0
10/01:30am WNW 4 5 - - - - 10 - - 21.3 1017.3 0.0
10/01:16am NW 4 5 - - - - 9 - - 21.1 1017.3 0.0
10/01:00am NW 5 6 - - - - 2 - - 20.3 1017.4 0.0
10/12:30am WNW 4 5 - - - - 2 - - 20.5 1017.7 0.0
10/12:16am WNW 4 5 - - - - 6 - - 20.7 1017.9 0.0
10/12:00am WNW 4 5 - - - - 10 - - 21.1 1018.1 0.0
 
Date/Time
EST
Wind Sea
Height
m
Swell Vis
km
Cloud Weather Temp
°C
Press
hPa
Rain since
9am
mm
Dir  Spd
kts
Gust
kts
Height
m
Period
s
Dir
09/11:30pm WNW 4 5 - - - - 10 - - 20.9 1018.4 0.0
09/11:00pm W 3 4 - - - - 10 - - 21.6 1018.9 0.0
09/10:30pm W 4 5 - - - - 10 - - 22.3 1019.3 0.0
09/10:00pm NW 4 5 - - - - 10 - - 22.4 1019.4 0.0
09/09:30pm NNW 5 6 - - - - 10 - - 22.3 1019.4 0.0
09/09:00pm N 4 5 - - - - 10 - - 22.7 1019.3 0.0
09/08:30pm N 3 4 - - - - 10 - - 23.3 1019.5 0.0
09/08:00pm NNE 4 6 - - - - 10 - - 23.5 1019.3 0.0
09/07:30pm NE 5 6 - - - - 10 - - 24.5 1019.1 0.0
09/07:00pm NE 6 7 - - - - 10 - - 24.9 1019.0 0.0
09/06:30pm NE 6 8 - - - - 10 - - 25.0 1018.6 0.0
09/06:00pm ENE 6 8 - - - - 10 - - 25.5 1018.5 0.0
09/05:30pm E 4 5 - - - - 10 - - 26.1 1018.3 0.0
09/05:00pm E 5 7 - - - - 10 - - 26.4 1018.2 0.0
09/04:30pm ENE 6 8 - - - - 10 - - 26.8 1018.1 0.0
09/04:00pm NE 8 9 - - - - 10 - - 26.9 1018.2 0.0
09/03:30pm NE 8 10 - - - - 10 Partly cloudy - 27.7 1018.4 0.0
09/03:00pm E 9 11 - - - - 10 Mostly clear - 27.5 1018.3 0.0
09/02:30pm E 9 11 - - - - 10 Partly cloudy - 28.1 1018.5 0.0
09/02:00pm E 9 12 - - - - 10 - - 28.0 1018.7 0.0
09/01:30pm ESE 10 14 - - - - 10 - - 28.1 1018.9 0.0
09/01:00pm SE 10 13 - - - - 10 Partly cloudy - 28.2 1019.2 0.0
09/12:30pm SE 11 14 - - - - 10 Partly cloudy - 27.5 1019.4 0.0
09/12:00pm SE 11 14 - - - - 10 - - 28.4 1019.7 0.0
09/11:30am ESE 10 13 - - - - 10 - - 27.6 1020.0 0.0
09/11:00am ESE 9 12 - - - - 10 - - 28.2 1020.3 0.0
09/10:30am SE 10 13 - - - - 10 - - 27.5 1020.7 0.0
09/10:00am SE 10 13 - - - - 10 Partly cloudy - 27.4 1020.7 0.0
09/09:30am SE 11 15 - - - - 10 Partly cloudy - 27.4 1020.8 0.0
09/09:00am SE 11 13 - - - - 10 Mostly clear - 27.6 1020.8 0.0
09/08:30am SSE 11 15 - - - - 10 Partly cloudy - 27.1 1020.6 0.0
09/08:00am SSE 12 15 - - - - 10 Partly cloudy - 26.3 1020.6 0.0
09/07:30am SSE 11 15 - - - - 10 Partly cloudy - 25.8 1020.5 0.0
09/07:00am SSE 10 14 - - - - 10 Partly cloudy - 25.6 1020.2 0.0
09/06:30am SE 11 15 - - - - 10 Partly cloudy - 25.2 1019.8 0.0
09/06:03am SSE 11 14 - - - - 10 Partly cloudy - 24.5 1019.5 0.0
09/06:00am SSE 11 14 - - - - 10 Cloudy - 24.5 1019.4 0.0
09/05:30am SSE 10 13 - - - - 10 Partly cloudy - 24.4 1019.0 0.0
09/05:00am SSE 10 13 - - - - 10 Partly cloudy - 24.2 1018.8 0.0
09/04:52am SSE 8 13 - - - - 10 Partly cloudy - 24.0 1018.7 0.0
09/04:30am SSE 9 11 - - - - 10 Partly cloudy - 24.0 1018.4 0.0
09/04:00am SSE 8 11 - - - - 10 Partly cloudy - 24.1 1018.2 0.0
09/03:30am SSE 7 8 - - - - 10 Cloudy - 24.0 1018.3 0.0
09/03:00am SSE 7 9 - - - - 10 Cloudy - 24.1 1018.5 0.0
09/02:30am SSE 8 10 - - - - 10 Cloudy - 24.2 1018.4 0.0
09/02:00am SSE 7 9 - - - - 10 Partly cloudy - 24.2 1018.5 0.0
09/01:30am S 7 9 - - - - 10 Partly cloudy - 24.3 1018.5 0.0
09/01:10am SSE 8 10 - - - - 10 Partly cloudy - 24.4 1018.5 0.0
09/01:00am SSE 9 11 - - - - 10 Partly cloudy - 24.5 1018.5 0.0
09/12:53am SSE 9 11 - - - - 10 Partly cloudy - 24.5 1018.5 0.0
09/12:52am SSE 9 11 - - - - 10 Partly cloudy - 24.5 1018.5 0.0
09/12:39am SSE 8 10 - - - - 10 Partly cloudy - 24.6 1018.6 0.0
09/12:30am SSE 8 11 - - - - 10 Partly cloudy - 24.6 1018.7 0.0
09/12:00am SSE 7 10 - - - - 10 Cloudy Rain 24.7 1019.0 0.0
 
Date/Time
EST
Wind Sea
Height
m
Swell Vis
km
Cloud Weather Temp
°C
Press
hPa
Rain since
9am
mm
Dir  Spd
kts
Gust
kts
Height
m
Period
s
Dir
08/11:35pm S 8 10 - - - - 10 Partly cloudy - 24.9 1019.3 0.0
08/11:30pm S 8 10 - - - - 10 Partly cloudy - 24.9 1019.3 0.0
08/11:00pm SSE 7 9 - - - - 10 Cloudy - 24.9 1019.2 0.0
08/10:30pm SSE 5 6 - - - - 10 Cloudy - 24.9 1019.2 0.0
08/10:00pm SE 6 9 - - - - 10 Partly cloudy - 24.9 1019.3 0.0
08/09:30pm SE 7 9 - - - - 10 Partly cloudy - 24.7 1019.1 0.0
08/09:07pm SE 7 10 - - - - 10 Partly cloudy - 25.1 1019.0 0.0
08/09:00pm SE 6 7 - - - - 10 Cloudy - 25.1 1018.9 0.0
08/08:30pm SSE 6 9 - - - - 10 Cloudy - 25.1 1018.7 0.0
08/08:00pm ESE 7 10 - - - - 10 Partly cloudy - 24.9 1018.2 0.0
08/07:30pm ESE 8 10 - - - - 10 Cloudy - 25.1 1017.9 0.0
08/07:00pm ESE 7 9 - - - - 10 Partly cloudy - 25.1 1017.9 0.0
08/06:30pm SE 8 10 - - - - 10 Partly cloudy - 25.2 1017.7 0.0
08/06:00pm SE 8 10 - - - - 10 Cloudy - 25.3 1017.6 0.0
08/05:30pm ESE 9 12 - - - - 10 Cloudy - 25.2 1017.0 0.0
08/05:00pm SE 10 13 - - - - 10 Cloudy - 25.3 1016.2 0.0
08/04:30pm ESE 12 15 - - - - 10 Partly cloudy - 25.8 1015.3 0.0
08/04:00pm ESE 11 15 - - - - 10 Cloudy - 26.0 1015.0 0.0
08/03:30pm ESE 11 17 - - - - 10 Cloudy - 26.1 1015.0 0.0
08/03:00pm ESE 12 16 - - - - 10 Partly cloudy - 26.2 1014.9 0.0
08/02:30pm SE 13 18 - - - - 10 Partly cloudy - 27.6 1015.1 0.0
08/02:00pm SE 14 20 - - - - 10 Partly cloudy - 27.6 1015.2 0.0
08/01:30pm SE 14 18 - - - - 10 - - 27.5 1015.3 0.0
08/01:00pm SE 13 17 - - - - 10 - - 27.8 1015.4 0.0
08/12:30pm SE 14 18 - - - - 10 - - 28.0 1015.7 0.0
08/12:00pm SSE 13 17 - - - - 10 Mostly clear - 28.2 1016.0 0.0
08/11:30am SE 14 18 - - - - 10 Partly cloudy - 28.2 1016.4 0.0
08/11:00am SSE 13 18 - - - - 10 Partly cloudy - 27.6 1016.6 0.0
08/10:31am SSE 13 17 - - - - 10 Partly cloudy - 27.9 1016.7 0.0
08/10:30am SSE 14 17 - - - - 10 Partly cloudy - 27.6 1016.7 0.0
08/10:00am SSE 13 17 - - - - 10 Cloudy - 26.8 1016.7 0.0
08/09:30am SSE 12 18 - - - - 10 Cloudy - 25.3 1016.8 0.0
08/09:00am SSE 13 16 - - - - 10 Mostly cloudy - 25.1 1016.7 0.0
08/08:30am SSE 13 18 - - - - 10 Cloudy - 26.4 1016.5 0.0
08/08:06am SSE 10 13 - - - - 10 Partly cloudy - 26.7 1016.4 0.0
08/08:00am S 11 13 - - - - 10 Partly cloudy - 26.5 1016.3 0.0
08/07:51am SSE 10 13 - - - - 10 Partly cloudy - 26.0 1016.2 0.0
08/07:30am S 9 11 - - - - 10 Partly cloudy - 25.6 1016.0 0.0
08/07:00am S 7 11 - - - - 10 Partly cloudy - 25.4 1015.8 0.0
08/06:30am S 9 11 - - - - 10 Partly cloudy - 25.0 1015.4 0.0
08/06:00am SSW 7 9 - - - - 10 Mostly cloudy - 24.7 1015.0 0.0
08/05:30am S 8 11 - - - - 10 Cloudy - 24.6 1014.6 0.0
08/05:00am S 8 11 - - - - 10 Cloudy - 24.5 1014.1 0.0
08/04:30am S 7 9 - - - - 10 Partly cloudy - 24.3 1013.5 0.0
08/04:00am S 8 11 - - - - 10 Partly cloudy - 24.4 1013.2 0.0
08/03:30am SSE 10 13 - - - - 10 Cloudy - 24.4 1013.1 0.0
08/03:00am SSE 9 13 - - - - 10 Mostly cloudy - 24.4 1012.9 0.0
08/02:30am S 10 14 - - - - 10 Cloudy - 24.5 1012.7 0.0
08/02:00am S 10 17 - - - - 10 Cloudy - 24.6 1012.7 0.0
08/01:30am S 11 15 - - - - 10 Cloudy - 24.6 1012.8 0.0
08/01:00am S 13 17 - - - - 8 Cloudy - 24.7 1012.6 0.0
08/12:30am S 12 16 - - - - 8 Cloudy - 24.8 1012.6 0.0
08/12:00am S 11 15 - - - - 9 Cloudy - 24.9 1012.9 0.0
 
Date/Time
EST
Wind Sea
Height
m
Swell Vis
km
Cloud Weather Temp
°C
Press
hPa
Rain since
9am
mm
Dir  Spd
kts
Gust
kts
Height
m
Period
s
Dir
07/11:39pm S 11 14 - - - - 9 Partly cloudy - 24.9 1012.7 0.0
07/11:30pm S 10 12 - - - - 10 Partly cloudy - 25.0 1012.8 0.0
07/11:00pm SSW 9 13 - - - - 10 Partly cloudy - 24.9 1012.7 0.0
07/10:30pm SW 4 5 - - - - 10 - - 24.2 1012.8 0.0
07/10:00pm WSW 4 7 - - - - 10 - - 23.8 1012.6 0.0
07/09:30pm SSW 5 7 - - - - 10 - - 24.5 1012.2 0.0
07/09:00pm N 6 8 - - - - 10 - - 23.8 1011.6 0.0
07/08:30pm NNE 9 13 - - - - 10 - - 24.3 1011.0 0.0
07/08:00pm NNE 11 14 - - - - 10 - - 24.4 1010.4 0.0
07/07:30pm NNE 9 13 - - - - 7 - - 24.7 1009.8 0.0
07/07:00pm NE 12 15 - - - - 10 - - 25.2 1009.3 0.0
07/06:30pm NNE 10 15 - - - - 10 - - 26.1 1008.9 0.0
07/06:00pm NNE 14 17 - - - - 10 - - 25.9 1008.4 0.0
07/05:30pm NNE 14 19 - - - - 10 - - 26.0 1008.0 0.0
07/05:00pm NNE 14 19 - - - - 10 - - 26.8 1007.3 0.0
07/04:30pm NNE 16 21 - - - - 10 - - 27.7 1006.7 0.0
07/04:00pm NNE 15 20 - - - - 10 - - 28.1 1006.3 0.0
07/03:30pm NNE 16 19 - - - - 10 - - 28.5 1006.4 0.0
07/03:00pm NE 17 21 - - - - 10 - - 28.8 1006.5 0.0
07/02:30pm NE 18 22 - - - - 10 - - 29.1 1006.8 0.0
07/02:00pm NE 18 24 - - - - 10 - - 28.8 1007.0 0.0
07/01:30pm NE 18 22 - - - - 10 - - 29.8 1007.1 0.0
07/01:08pm NE 18 28 - - - - 10 - - 29.5 1007.3 0.0
07/01:00pm NE 18 22 - - - - 10 - - 29.1 1007.4 0.0
07/12:30pm NE 17 24 - - - - 10 Partly cloudy - 28.3 1007.8 0.0
07/12:00pm NNE 18 24 - - - - 10 - - 28.9 1008.0 0.0
07/11:30am NNE 18 23 - - - - 10 - - 29.4 1008.3 0.0
07/11:00am NNE 16 21 - - - - 10 - - 30.6 1008.6 0.0
07/10:30am NE 14 19 - - - - 10 - - 29.3 1009.0 0.0
07/10:00am NNE 13 17 - - - - 10 - - 32.5 1009.3 0.0
07/09:30am N 7 12 - - - - 10 - - 33.2 1009.6 0.0
07/09:00am NW 10 16 - - - - 10 - - 32.8 1009.8 0.0
07/08:30am NW 9 13 - - - - 10 - - 31.9 1010.0 0.0
07/08:00am NW 10 14 - - - - 10 - - 29.8 1010.2 0.0
07/07:30am NNW 7 11 - - - - 10 - - 28.4 1010.2 0.0
07/07:00am NNW 6 10 - - - - 10 - - 26.8 1010.3 0.0
07/06:30am N 7 9 - - - - 10 - - 25.6 1010.2 0.0
07/06:00am NNW 7 11 - - - - 10 - - 24.4 1010.0 0.0
07/05:30am N 8 11 - - - - 10 - - 23.4 1009.6 0.0
07/05:00am NNW 9 12 - - - - 10 - - 22.8 1009.1 0.0
07/04:30am N 9 12 - - - - 10 - - 22.7 1008.7 0.0
07/04:00am NNW 8 10 - - - - 10 - - 22.7 1008.4 0.0
07/03:30am N 9 11 - - - - 10 - - 23.1 1008.2 0.0
07/03:00am N 8 11 - - - - 10 - - 23.3 1008.0 0.0
07/02:30am N 7 10 - - - - 10 - - 23.5 1007.8 0.0

Other formats

Comma delimited format used in spreadsheet applications
http://www.bom.gov.au/fwo/IDQ60701/IDQ60701.94569.axf

JavaScript Object Notation format (JSON) in row-major order
http://www.bom.gov.au/fwo/IDQ60701/IDQ60701.94569.json

Data quality

Most of these data are generated automatically and are frequently updated. Quality checks on data are not normally performed. It is possible for incorrect values to appear. Refer to information at About Latest Weather Observations and please check the disclaimer before using these data.